カタログに戻る

FENGYUN 1C DEB

運用中PO
NORAD 30616·DEBRIS·🇨🇳 China

打ち上げ May 10, 1999 から Taiyuan Satellite Launch Center

Loading…

次のパス (今後24時間)

TLE

最新Source: Space-Track

元期: Sep 14, 2026, 00:25 UTC

1 30616U 99025AMX 26257.01748701  .00000599  00000-0  81406-3 0  9996
2 30616  98.6239 278.6940 0380422 284.3648  71.5544 13.36610134953770

AllMySatでFENGYUN 1C DEBをリアルタイム追跡

Download on the App Store